| time (UTC) | temp F | wind direction | speed MPH | gust MPH | rain 1hr in | rain 24hr in | rain mn in | humidity % | barometer mb |
| 20260506194604 | 50 | 122 | 13.0 | 15.0 | 0.00 | 0.23 | 0.16 | 88 | 1007.8 |
| 20260506193633 | 50 | 122 | 10.0 | 14.0 | 0.00 | 0.23 | 0.16 | 88 | 1007.5 |
| 20260506193102 | 50 | 103 | 8.0 | 12.0 | 0.00 | 0.23 | 0.16 | 88 | 1007.5 |
| 20260506192105 | 51 | 140 | 6.0 | 8.0 | 0.00 | 0.23 | 0.16 | 86 | 1007.4 |
| 20260506191117 | 51 | 139 | 7.0 | 8.0 | 0.00 | 0.23 | 0.16 | 86 | 1007.3 |
| 20260506190618 | 51 | 134 | 7.0 | 8.0 | 0.00 | 0.23 | 0.16 | 86 | 1007.2 |
| 20260506185602 | 51 | 122 | 7.0 | 9.0 | 0.00 | 0.23 | 0.16 | 86 | 1007.3 |
| 20260506185102 | 52 | 109 | 7.0 | 9.0 | 0.00 | 0.23 | 0.16 | 86 | 1007.3 |
| 20260506184101 | 52 | 98 | 4.0 | 7.0 | 0.00 | 0.23 | 0.16 | 84 | 1007.3 |
| 20260506183101 | 52 | 96 | 4.0 | 5.0 | 0.00 | 0.23 | 0.16 | 83 | 1007.3 |
| 20260506182602 | 52 | 90 | 3.0 | 5.0 | 0.00 | 0.23 | 0.16 | 82 | 1007.3 |
| 20260506182101 | 52 | 111 | 2.0 | 4.0 | 0.00 | 0.23 | 0.16 | 82 | 1007.1 |
| 20260506181601 | 52 | 133 | 2.0 | 4.0 | 0.00 | 0.23 | 0.16 | 82 | 1007.0 |
| 20260506175603 | 52 | 115 | 5.0 | 6.0 | 0.00 | 0.23 | 0.16 | 83 | 1006.7 |
| 20260506175102 | 52 | 129 | 5.0 | 6.0 | 0.00 | 0.23 | 0.16 | 84 | 1006.7 |
| 20260506174604 | 52 | 134 | 5.0 | 7.0 | 0.00 | 0.23 | 0.16 | 83 | 1006.7 |
| 20260506174101 | 52 | 129 | 6.0 | 8.0 | 0.00 | 0.23 | 0.16 | 84 | 1006.8 |
| 20260506173101 | 52 | 129 | 8.0 | 10.0 | 0.00 | 0.23 | 0.16 | 84 | 1006.7 |
| 20260506172603 | 52 | 124 | 9.0 | 12.0 | 0.00 | 0.23 | 0.16 | 84 | 1006.6 |
| 20260506172101 | 52 | 119 | 9.0 | 12.0 | 0.00 | 0.23 | 0.16 | 84 | 1006.6 |
| 20260506171600 | 52 | 125 | 9.0 | 11.0 | 0.00 | 0.23 | 0.16 | 84 | 1006.6 |
| 20260506171104 | 52 | 113 | 11.0 | 13.0 | 0.00 | 0.23 | 0.16 | 84 | 1006.5 |
| 20260506165555 | 52 | 127 | 10.0 | 12.0 | 0.00 | 0.23 | 0.16 | 84 | 1006.4 |
| 20260506165053 | 52 | 143 | 10.0 | 12.0 | 0.00 | 0.23 | 0.16 | 83 | 1006.3 |
| 20260506164553 | 52 | 144 | 10.0 | 11.0 | 0.00 | 0.23 | 0.16 | 84 | 1006.3 |
| 20260506164050 | 52 | 134 | 10.0 | 12.0 | 0.00 | 0.23 | 0.16 | 84 | 1006.2 |
| 20260506163549 | 52 | 131 | 11.0 | 14.0 | 0.00 | 0.23 | 0.16 | 84 | 1006.3 |
| 20260506163046 | 52 | 129 | 13.0 | 17.0 | 0.00 | 0.23 | 0.16 | 84 | 1006.4 |
| 20260506162541 | 52 | 125 | 14.0 | 17.0 | 0.00 | 0.23 | 0.16 | 84 | 1006.4 |
| 20260506162040 | 53 | 117 | 14.0 | 16.0 | 0.00 | 0.23 | 0.16 | 83 | 1006.6 |
| 20260506161535 | 53 | 113 | 15.0 | 16.0 | 0.00 | 0.23 | 0.16 | 84 | 1006.7 |
| 20260506161034 | 53 | 114 | 13.0 | 16.0 | 0.00 | 0.23 | 0.16 | 81 | 1006.9 |
| 20260506160535 | 53 | 113 | 12.0 | 14.0 | 0.00 | 0.23 | 0.16 | 79 | 1006.9 |
| 20260506160033 | 54 | 127 | 12.0 | 14.0 | 0.00 | 0.23 | 0.16 | 79 | 1007.0 |
| 20260506155532 | 54 | 108 | 12.0 | 14.0 | 0.00 | 0.23 | 0.16 | 77 | 1006.9 |
| 20260506155031 | 54 | 134 | 7.0 | 14.0 | 0.00 | 0.23 | 0.16 | 76 | 1007.0 |
| 20260506154030 | 54 | 44 | 4.0 | 7.0 | 0.00 | 0.23 | 0.16 | 70 | 1006.7 |
| 20260506153022 | 54 | 39 | 5.0 | 10.0 | 0.00 | 0.23 | 0.16 | 71 | 1006.6 |
| 20260506152538 | 54 | 68 | 5.0 | 10.0 | 0.00 | 0.23 | 0.16 | 73 | 1006.6 |
| 20260506152018 | 54 | 14 | 5.0 | 9.0 | 0.00 | 0.23 | 0.16 | 72 | 1006.6 |
| 20260506151532 | 54 | 26 | 7.0 | 10.0 | 0.00 | 0.24 | 0.16 | 74 | 1006.7 |
| 20260506151050 | 54 | 26 | 7.0 | 10.0 | 0.00 | 0.24 | 0.16 | 72 | 1006.6 |
| 20260506150511 | 54 | 40 | 6.0 | 9.0 | 0.00 | 0.24 | 0.16 | 73 | 1006.6 |
| 20260506150018 | 54 | 26 | 6.0 | 10.0 | 0.00 | 0.24 | 0.16 | 73 | 1006.7 |
| 20260506145508 | 54 | 12 | 5.0 | 11.0 | 0.00 | 0.27 | 0.16 | 75 | 1006.7 |
| 20260506145002 | 54 | 7 | 4.0 | 11.0 | 0.00 | 0.30 | 0.16 | 75 | 1006.6 |
| 20260506143501 | 53 | 25 | 5.0 | 9.0 | 0.00 | 0.31 | 0.16 | 76 | 1006.5 |
| 20260506143016 | 53 | 355 | 5.0 | 8.0 | 0.00 | 0.31 | 0.16 | 78 | 1006.5 |
| 20260506142500 | 53 | 0 | 5.0 | 9.0 | 0.00 | 0.31 | 0.16 | 79 | 1006.5 |
| 20260506142005 | 52 | 21 | 5.0 | 9.0 | 0.00 | 0.31 | 0.16 | 80 | 1006.4 |
| 20260506141458 | 52 | 355 | 5.0 | 9.0 | 0.00 | 0.31 | 0.16 | 79 | 1006.4 |
| 20260506141004 | 52 | 9 | 4.0 | 8.0 | 0.00 | 0.31 | 0.16 | 80 | 1006.3 |
| 20260506140450 | 52 | 11 | 3.0 | 6.0 | 0.00 | 0.31 | 0.16 | 79 | 1006.2 |
| 20260506135944 | 51 | 328 | 4.0 | 7.0 | 0.00 | 0.31 | 0.16 | 80 | 1006.2 |
| 20260506135441 | 51 | 7 | 4.0 | 8.0 | 0.00 | 0.31 | 0.16 | 79 | 1006.2 |
| 20260506134936 | 51 | 332 | 5.0 | 8.0 | 0.00 | 0.32 | 0.16 | 79 | 1006.3 |
| 20260506134435 | 52 | 334 | 5.0 | 9.0 | 0.00 | 0.34 | 0.16 | 80 | 1006.3 |
| 20260506133930 | 52 | 338 | 6.0 | 12.0 | 0.00 | 0.35 | 0.16 | 79 | 1006.3 |
| 20260506133431 | 52 | 310 | 5.0 | 12.0 | 0.00 | 0.35 | 0.16 | 80 | 1006.3 |
| 20260506132931 | 52 | 355 | 5.0 | 9.0 | 0.00 | 0.35 | 0.16 | 80 | 1006.3 |
| 20260506132431 | 52 | 299 | 5.0 | 10.0 | 0.00 | 0.35 | 0.16 | 80 | 1006.3 |
| 20260506131929 | 52 | 5 | 5.0 | 10.0 | 0.00 | 0.35 | 0.16 | 81 | 1006.3 |
| 20260506131428 | 52 | 7 | 4.0 | 8.0 | 0.00 | 0.35 | 0.16 | 81 | 1006.3 |
| 20260506130430 | 51 | 355 | 5.0 | 10.0 | 0.00 | 0.35 | 0.16 | 81 | 1006.1 |
| 20260506125928 | 51 | 319 | 6.0 | 13.0 | 0.00 | 0.35 | 0.16 | 82 | 1006.1 |
| 20260506125431 | 51 | 327 | 6.0 | 13.0 | 0.00 | 0.35 | 0.16 | 82 | 1006.1 |
| 20260506124430 | 51 | 333 | 7.0 | 12.0 | 0.00 | 0.35 | 0.16 | 84 | 1005.9 |
| 20260506123945 | 51 | 355 | 8.0 | 12.0 | 0.00 | 0.35 | 0.16 | 84 | 1005.9 |
| 20260506123430 | 51 | 21 | 7.0 | 11.0 | 0.00 | 0.35 | 0.16 | 84 | 1005.9 |
| 20260506122430 | 51 | 24 | 6.0 | 11.0 | 0.00 | 0.35 | 0.16 | 84 | 1006.0 |
| 20260506121930 | 51 | 29 | 5.0 | 10.0 | 0.00 | 0.35 | 0.16 | 84 | 1005.7 |
| 20260506121430 | 51 | 336 | 6.0 | 10.0 | 0.00 | 0.35 | 0.16 | 84 | 1005.7 |
| 20260506120430 | 50 | 5 | 8.0 | 13.0 | 0.01 | 0.35 | 0.16 | 84 | 1005.5 |
| 20260506115931 | 50 | 37 | 6.0 | 10.0 | 0.01 | 0.35 | 0.15 | 85 | 1005.5 |
| 20260506115428 | 50 | 18 | 5.0 | 9.0 | 0.01 | 0.35 | 0.15 | 85 | 1005.4 |
| 20260506114931 | 50 | 35 | 5.0 | 8.0 | 0.01 | 0.35 | 0.15 | 86 | 1005.3 |
| 20260506114429 | 50 | 3 | 4.0 | 7.0 | 0.01 | 0.35 | 0.15 | 87 | 1005.3 |
| 20260506113929 | 51 | 35 | 5.0 | 9.0 | 0.02 | 0.35 | 0.15 | 87 | 1005.4 |
| 20260506112931 | 50 | 350 | 5.0 | 10.0 | 0.02 | 0.35 | 0.15 | 86 | 1005.3 |
| 20260506112429 | 50 | 359 | 5.0 | 10.0 | 0.02 | 0.35 | 0.15 | 87 | 1005.3 |
| 20260506111944 | 50 | 330 | 4.0 | 9.0 | 0.03 | 0.35 | 0.15 | 88 | 1005.2 |
| 20260506111428 | 50 | 330 | 4.0 | 7.0 | 0.04 | 0.35 | 0.15 | 89 | 1005.3 |
| 20260506110930 | 50 | 329 | 5.0 | 8.0 | 0.05 | 0.35 | 0.15 | 89 | 1005.1 |
| 20260506110429 | 50 | 355 | 4.0 | 8.0 | 0.05 | 0.35 | 0.15 | 90 | 1005.0 |
| 20260506105930 | 50 | 9 | 3.0 | 7.0 | 0.06 | 0.35 | 0.09 | 91 | 1005.1 |
| 20260506105459 | 50 | 350 | 3.0 | 6.0 | 0.08 | 0.35 | 0.09 | 91 | 1004.9 |
| 20260506104931 | 50 | 309 | 2.0 | 5.0 | 0.09 | 0.35 | 0.09 | 92 | 1004.9 |
| 20260506104431 | 50 | 290 | 2.0 | 4.0 | 0.09 | 0.35 | 0.09 | 91 | 1004.9 |
| 20260506103929 | 50 | 78 | 2.0 | 4.0 | 0.08 | 0.34 | 0.09 | 91 | 1004.8 |
| 20260506103428 | 50 | 59 | 3.0 | 6.0 | 0.08 | 0.34 | 0.09 | 91 | 1004.8 |
| 20260506102924 | 50 | 46 | 4.0 | 6.0 | 0.08 | 0.34 | 0.09 | 91 | 1004.8 |
| 20260506102421 | 50 | 62 | 4.0 | 5.0 | 0.06 | 0.32 | 0.09 | 91 | 1004.9 |
| 20260506101410 | 50 | 73 | 5.0 | 24.0 | 0.06 | 0.31 | 0.09 | 90 | 1005.0 |
| 20260506100907 | 50 | 81 | 5.0 | 24.0 | 0.05 | 0.31 | 0.09 | 90 | 1005.0 |
| 20260506095907 | 50 | 107 | 1.0 | 4.0 | 0.02 | 0.28 | 0.06 | 88 | 1004.9 |
| 20260506095406 | 50 | 138 | 1.0 | 2.0 | 0.01 | 0.27 | 0.06 | 88 | 1004.8 |
| 20260506094903 | 51 | 138 | 1.0 | 4.0 | 0.00 | 0.26 | 0.06 | 88 | 1004.7 |
| 20260506094405 | 50 | 138 | 2.0 | 4.0 | 0.00 | 0.26 | 0.06 | 88 | 1004.6 |
| 20260506093903 | 51 | 138 | 2.0 | 5.0 | 0.00 | 0.26 | 0.06 | 88 | 1004.4 |
| 20260506092903 | 51 | 157 | 1.0 | 2.0 | 0.00 | 0.26 | 0.06 | 88 | 1004.2 |
| 20260506092403 | 51 | 157 | 1.0 | 2.0 | 0.00 | 0.26 | 0.06 | 88 | 1004.1 |
| 20260506091902 | 50 | 157 | 1.0 | 2.0 | 0.00 | 0.26 | 0.06 | 89 | 1004.1 |
| 20260506091402 | 50 | 157 | 1.0 | 4.0 | 0.00 | 0.26 | 0.06 | 89 | 1004.1 |
| 20260506090404 | 50 | 157 | 1.0 | 4.0 | 0.02 | 0.26 | 0.06 | 89 | 1004.1 |
| 20260506085903 | 50 | 138 | 1.0 | 4.0 | 0.02 | 0.26 | 0.05 | 89 | 1004.0 |
| 20260506085416 | 50 | 138 | 2.0 | 5.0 | 0.02 | 0.26 | 0.05 | 89 | 1003.8 |
| 20260506084902 | 50 | 138 | 3.0 | 5.0 | 0.02 | 0.26 | 0.05 | 90 | 1003.8 |
| 20260506084417 | 50 | 97 | 2.0 | 5.0 | 0.02 | 0.26 | 0.05 | 90 | 1003.7 |
| 20260506083903 | 49 | 97 | 2.0 | 5.0 | 0.02 | 0.26 | 0.05 | 90 | 1003.6 |
| 20260506083404 | 49 | 82 | 3.0 | 5.0 | 0.02 | 0.26 | 0.05 | 90 | 1003.6 |
| 20260506082901 | 49 | 93 | 3.0 | 4.0 | 0.02 | 0.26 | 0.05 | 90 | 1003.6 |
| 20260506082402 | 49 | 92 | 2.0 | 4.0 | 0.02 | 0.26 | 0.05 | 90 | 1003.6 |
| 20260506081901 | 49 | 92 | 1.0 | 4.0 | 0.02 | 0.26 | 0.05 | 90 | 1003.6 |
| 20260506080917 | 49 | 92 | 1.0 | 2.0 | 0.01 | 0.25 | 0.05 | 89 | 1003.5 |
| 20260506080402 | 49 | 92 | 0.0 | 2.0 | 0.00 | 0.24 | 0.05 | 89 | 1003.4 |
| 20260506073404 | 49 | 99 | 1.0 | 5.0 | 0.00 | 0.24 | 0.05 | 90 | 1003.6 |
| 20260506072904 | 49 | 269 | 1.0 | 2.0 | 0.00 | 0.24 | 0.05 | 91 | 1003.6 |
| 20260506072418 | 49 | 269 | 1.0 | 2.0 | 0.00 | 0.24 | 0.05 | 91 | 1003.5 |
| 20260506071903 | 49 | 269 | 1.0 | 2.0 | 0.00 | 0.24 | 0.05 | 91 | 1003.4 |
| 20260506071359 | 49 | 269 | 1.0 | 2.0 | 0.00 | 0.24 | 0.05 | 91 | 1003.4 |
| 20260506070858 | 49 | 176 | 2.0 | 5.0 | 0.00 | 0.24 | 0.05 | 92 | 1003.3 |
| 20260506070354 | 49 | 176 | 3.0 | 5.0 | 0.00 | 0.24 | 0.05 | 92 | 1003.4 |
| 20260506062329 | 48 | 299 | 2.0 | 4.0 | 0.00 | 0.24 | 0.05 | 92 | 1003.4 |
| 20260506060329 | 47 | 287 | 2.0 | 3.0 | 0.00 | 0.24 | 0.05 | 93 | 1003.4 |
| 20260506051304 | 47 | 241 | 3.0 | 5.0 | 0.00 | 0.25 | 0.05 | 92 | 1003.3 |
| 20260506050302 | 47 | 251 | 3.0 | 5.0 | 0.00 | 0.25 | 0.05 | 92 | 1003.1 |
| 20260506044303 | 47 | 334 | 2.0 | 3.0 | 0.00 | 0.25 | 0.05 | 92 | 1003.0 |
| 20260506043828 | 47 | 334 | 2.0 | 3.0 | 0.00 | 0.25 | 0.05 | 91 | 1003.1 |
| 20260506043301 | 47 | 264 | 2.0 | 4.0 | 0.00 | 0.25 | 0.05 | 91 | 1003.1 |
| 20260506042305 | 47 | 224 | 3.0 | 5.0 | 0.00 | 0.25 | 0.05 | 91 | 1003.1 |
| 20260506041801 | 47 | 229 | 3.0 | 5.0 | 0.00 | 0.25 | 0.05 | 91 | 1003.0 |
| 20260506041300 | 47 | 217 | 3.0 | 4.0 | 0.00 | 0.25 | 0.05 | 91 | 1003.0 |
| 20260506040818 | 47 | 228 | 3.0 | 4.0 | 0.00 | 0.25 | 0.05 | 91 | 1003.0 |
| 20260506040300 | 47 | 228 | 2.0 | 4.0 | 0.00 | 0.25 | 0.05 | 90 | 1003.1 |
| 20260506035305 | 48 | 181 | 3.0 | 5.0 | 0.00 | 0.25 | 0.05 | 90 | 1003.1 |
| 20260506034302 | 48 | 178 | 4.0 | 5.0 | 0.00 | 0.25 | 0.05 | 89 | 1003.3 |
| 20260506033802 | 48 | 174 | 4.0 | 7.0 | 0.00 | 0.25 | 0.05 | 89 | 1003.4 |
| 20260506032804 | 48 | 148 | 6.0 | 8.0 | 0.00 | 0.25 | 0.05 | 88 | 1003.4 |
| 20260506032306 | 48 | 143 | 4.0 | 8.0 | 0.00 | 0.25 | 0.05 | 88 | 1003.4 |
| 20260506031801 | 49 | 145 | 3.0 | 6.0 | 0.00 | 0.25 | 0.05 | 88 | 1003.5 |
| 20260506031316 | 49 | 165 | 3.0 | 5.0 | 0.00 | 0.25 | 0.05 | 87 | 1003.5 |
| 20260506030315 | 49 | 167 | 7.0 | 10.0 | 0.00 | 0.25 | 0.05 | 87 | 1003.8 |
| 20260506025801 | 49 | 178 | 8.0 | 11.0 | 0.00 | 0.25 | 0.05 | 87 | 1003.8 |
| 20260506025305 | 49 | 136 | 9.0 | 11.0 | 0.00 | 0.25 | 0.05 | 86 | 1004.0 |
| 20260506024802 | 49 | 126 | 10.0 | 14.0 | 0.00 | 0.25 | 0.05 | 86 | 1004.1 |
| 20260506024300 | 49 | 128 | 8.0 | 14.0 | 0.00 | 0.25 | 0.05 | 85 | 1004.1 |
| 20260506023801 | 50 | 130 | 5.0 | 11.0 | 0.00 | 0.25 | 0.05 | 85 | 1004.2 |
| 20260506023301 | 50 | 152 | 7.0 | 13.0 | 0.00 | 0.25 | 0.05 | 84 | 1004.2 |
| 20260506022317 | 50 | 145 | 12.0 | 16.0 | 0.00 | 0.25 | 0.05 | 83 | 1004.3 |
| 20260506021803 | 51 | 130 | 13.0 | 17.0 | 0.00 | 0.25 | 0.05 | 82 | 1004.5 |
| 20260506021301 | 51 | 134 | 14.0 | 17.0 | 0.00 | 0.25 | 0.05 | 82 | 1004.7 |
| 20260506020302 | 51 | 118 | 15.0 | 18.0 | 0.00 | 0.25 | 0.05 | 84 | 1005.0 |
| 20260506015801 | 51 | 116 | 16.0 | 19.0 | 0.00 | 0.25 | 0.05 | 83 | 1004.9 |
| 20260506015305 | 51 | 122 | 16.0 | 19.0 | 0.00 | 0.25 | 0.05 | 87 | 1005.0 |
| 20260506014802 | 51 | 114 | 16.0 | 18.0 | 0.00 | 0.25 | 0.05 | 88 | 1005.0 |
| 20260506014301 | 51 | 116 | 16.0 | 18.0 | 0.00 | 0.25 | 0.05 | 88 | 1005.0 |
| 20260506013802 | 51 | 120 | 16.0 | 18.0 | 0.00 | 0.25 | 0.05 | 87 | 1005.0 |
| 20260506013301 | 51 | 123 | 15.0 | 18.0 | 0.00 | 0.25 | 0.05 | 86 | 1005.2 |
| 20260506012801 | 51 | 126 | 15.0 | 18.0 | 0.00 | 0.25 | 0.05 | 85 | 1005.3 |
| 20260506012307 | 51 | 122 | 16.0 | 20.0 | 0.00 | 0.25 | 0.05 | 84 | 1005.4 |
| 20260506011801 | 52 | 124 | 17.0 | 20.0 | 0.00 | 0.25 | 0.05 | 82 | 1005.3 |
| 20260506011300 | 52 | 130 | 19.0 | 22.0 | 0.00 | 0.25 | 0.05 | 83 | 1005.4 |
| 20260506010303 | 52 | 118 | 19.0 | 23.0 | 0.00 | 0.25 | 0.05 | 82 | 1005.3 |
| 20260506005305 | 52 | 104 | 18.0 | 21.0 | 0.00 | 0.25 | 0.05 | 83 | 1005.5 |
| 20260506004802 | 52 | 120 | 19.0 | 24.0 | 0.00 | 0.25 | 0.05 | 84 | 1005.7 |
| 20260506004314 | 52 | 120 | 18.0 | 24.0 | 0.00 | 0.25 | 0.05 | 82 | 1006.0 |
| 20260506003817 | 51 | 112 | 18.0 | 26.0 | 0.00 | 0.25 | 0.05 | 82 | 1006.0 |
| 20260506002817 | 52 | 98 | 16.0 | 22.0 | 0.00 | 0.25 | 0.05 | 83 | 1006.3 |
| 20260506001804 | 52 | 97 | 16.0 | 20.0 | 0.00 | 0.25 | 0.05 | 84 | 1006.4 |
| 20260506001257 | 52 | 105 | 15.0 | 20.0 | 0.00 | 0.25 | 0.05 | 86 | 1006.5 |
| 20260506000752 | 51 | 99 | 10.0 | 18.0 | 0.00 | 0.25 | 0.05 | 86 | 1006.5 |
| 20260505235800 | 50 | 151 | 5.0 | 10.0 | 0.00 | 0.25 | 0.05 | 84 | 1006.4 |
| 20260505235242 | 51 | 163 | 5.0 | 9.0 | 0.01 | 0.25 | 0.05 | 84 | 1006.6 |
| 20260505234741 | 51 | 224 | 6.0 | 13.0 | 0.01 | 0.25 | 0.05 | 84 | 1006.7 |
| 20260505233241 | 52 | 128 | 16.0 | 27.0 | 0.02 | 0.25 | 0.05 | 83 | 1006.8 |
| 20260505232733 | 52 | 105 | 21.0 | 27.0 | 0.03 | 0.25 | 0.05 | 83 | 1007.0 |
| 20260505232231 | 52 | 98 | 22.0 | 26.0 | 0.04 | 0.25 | 0.05 | 83 | 1006.9 |
| 20260505231803 | 52 | 108 | 20.0 | 25.0 | 0.05 | 0.25 | 0.05 | 82 | 1006.7 |
| 20260505231232 | 52 | 111 | 17.0 | 24.0 | 0.05 | 0.25 | 0.05 | 80 | 1006.8 |
| 20260505230225 | 51 | 75 | 14.0 | 20.0 | 0.05 | 0.25 | 0.05 | 85 | 1006.9 |
| 20260505225724 | 51 | 95 | 13.0 | 20.0 | 0.05 | 0.25 | 0.00 | 86 | 1006.9 |
| 20260505225225 | 51 | 86 | 10.0 | 14.0 | 0.04 | 0.24 | 0.00 | 88 | 1007.1 |
| 20260505224225 | 52 | 133 | 10.0 | 23.0 | 0.03 | 0.24 | 0.00 | 90 | 1007.3 |
| 20260505223726 | 52 | 119 | 14.0 | 23.0 | 0.04 | 0.24 | 0.00 | 90 | 1007.3 |
| 20260505223237 | 52 | 92 | 15.0 | 19.0 | 0.03 | 0.23 | 0.00 | 90 | 1007.3 |
| 20260505222722 | 52 | 105 | 14.0 | 19.0 | 0.03 | 0.22 | 0.00 | 91 | 1007.3 |
| 20260505221708 | 52 | 78 | 11.0 | 17.0 | 0.02 | 0.20 | 0.00 | 92 | 1007.4 |
| 20260505221210 | 52 | 109 | 10.0 | 13.0 | 0.03 | 0.20 | 0.00 | 92 | 1007.2 |
| 20260505220513 | 52 | 150 | 7.0 | 11.0 | 0.04 | 0.20 | 0.00 | 91 | 1007.2 |
| 20260505215712 | 52 | 172 | 8.0 | 12.0 | 0.04 | 0.20 | 0.17 | 91 | 1007.2 |
| 20260505215208 | 52 | 138 | 9.0 | 12.0 | 0.04 | 0.20 | 0.17 | 90 | 1007.1 |
| 20260505214707 | 52 | 179 | 5.0 | 12.0 | 0.04 | 0.20 | 0.17 | 90 | 1007.1 |
| 20260505214206 | 52 | 100 | 3.0 | 7.0 | 0.04 | 0.20 | 0.17 | 89 | 1007.0 |
| 20260505213704 | 52 | 114 | 3.0 | 7.0 | 0.04 | 0.20 | 0.17 | 89 | 1007.1 |
| 20260505213202 | 52 | 91 | 4.0 | 7.0 | 0.04 | 0.20 | 0.17 | 89 | 1007.2 |
| 20260505212702 | 52 | 74 | 3.0 | 7.0 | 0.04 | 0.19 | 0.17 | 90 | 1007.2 |
| 20260505211705 | 52 | 97 | 6.0 | 11.0 | 0.04 | 0.18 | 0.17 | 89 | 1007.4 |
| 20260505211159 | 53 | 96 | 10.0 | 15.0 | 0.03 | 0.17 | 0.17 | 89 | 1007.3 |
| 20260505210156 | 53 | 103 | 17.0 | 20.0 | 0.03 | 0.17 | 0.17 | 88 | 1007.4 |
| 20260505205658 | 52 | 109 | 20.0 | 23.0 | 0.03 | 0.17 | 0.13 | 89 | 1007.3 |
| 20260505205157 | 53 | 103 | 21.0 | 24.0 | 0.03 | 0.17 | 0.13 | 89 | 1007.3 |
| 20260505204655 | 52 | 103 | 20.0 | 24.0 | 0.03 | 0.17 | 0.13 | 90 | 1007.1 |
| 20260505203656 | 52 | 99 | 18.0 | 22.0 | 0.02 | 0.16 | 0.13 | 90 | 1007.2 |
| 20260505202652 | 52 | 86 | 15.0 | 19.0 | 0.02 | 0.15 | 0.13 | 89 | 1007.1 |
| 20260505201642 | 53 | 97 | 13.0 | 16.0 | 0.01 | 0.14 | 0.13 | 89 | 1007.4 |
| 20260505201136 | 53 | 101 | 11.0 | 15.0 | 0.01 | 0.14 | 0.13 | 88 | 1007.4 |
| 20260505200634 | 53 | 101 | 11.0 | 14.0 | 0.01 | 0.14 | 0.13 | 87 | 1007.3 |
| 20260505200133 | 53 | 120 | 12.0 | 14.0 | 0.00 | 0.13 | 0.13 | 86 | 1007.3 |
| 20260505195630 | 53 | 119 | 13.0 | 14.0 | 0.00 | 0.13 | 0.13 | 86 | 1007.3 |
| 20260505195130 | 53 | 122 | 13.0 | 16.0 | 0.00 | 0.13 | 0.13 | 87 | 1007.2 |
| 20260505194629 | 53 | 116 | 13.0 | 16.0 | 0.00 | 0.13 | 0.13 | 86 | 1007.2 |